Showing default

CENTISPACE-1 S14, 62583

Orbit data source: Space-Track

CENTISPACE-1 S14, 62583 is a payload satellite owned by Centispace (CN) in LEO that was launched on Mon, 13 Jan 2025 UTC via a JIELONG-3 launch vehicle from the Yellow Sea Launch Area, China (YSLA). Payload-class satellites include a variety of spacecraft equipped with specific instruments for various scientific and technological missions. These include communications satellites like Starlink; space stations such as the ISS; scientific satellites like the Hubble; Earth observation satellites from companies like Planet Labs, Umbra, and HawkEye 360; GPS; miniature CubeSats for education and research; and military/defense satellites.

Loading next visibility...
Identifier
62583, 2025-007J
Orbit
LEO
Country
Flag of CNCN / PRC
Related business
Manufacturer
DFH Shenzhen
Mission
Operational Commercial Nav/Com
Bus & Motor
WK01, Unknown motor
Mass
140 kg wet, 140 kg dry
Launch date (UTC)
2025-01-13 (11 months ago)
Launch vehicle
JIELONG-3
Launch site
Yellow Sea Launch Area, China (YSLA)
Object type
Payload
Rocket body
Debris
Shape & HBR
Box + 2 Pan, 1.0 m
Radar Cross Section
0.833 m², Medium (>0.1 m² and < 1m²)

Expand to show TLE details & history
Last TLE update: 13 hours ago

TLE from 13 hours ago
0 CENTISPACE-1 S14
1 62583U 25007J   25351.72957428  .00000371  00000-0  26200-3 0  9992
2 62583  54.9819 216.9695 0008577 264.3455  95.6540 14.16641450 49482
Epoch: 2025-12-17T17:30Z
TLE epoch observation values (Epoch: 2025-12-17T17:30:35.217Z)
Latitude
-0.00002°
Longitude
-132.2725°
Altitude
838.388 km
Speed
7.434 km/s
True Right ascension
14h 27m 52s
True Declination
0° 00' 00"
Sunlit
Object was in daylight at epoch
Visualization orbit readout
Latitude
Unknown
Longitude
Unknown
Altitude
Unknown
Speed
Unknown
Apparent Right ascension
Unknown
Apparent Declination
Unknown
Sunlit
N/A
Visualization observer readout
Local Sidereal Time
05:31:41
Azimuth
Unknown
Elevation
Unknown
Doppler factor
Unknown
Orbital elements
Apogee altitude
842.889 km
Perigee altitude
830.513 km
Semi-major axis
7,214.838 km
Eccentricity
0.00086
Inclination
54.9819°
RAAN
216.9695°
Arg. of periapsis
264.3455°
True anomaly
95.7518°
Mean anomaly
95.654°
Eccentric anomaly
95.7029°
Mean motion
3.54163 °/min
Orbital period
101.65 mins
BSTAR
0.000262
Loading maneuver chart data...
Computing Atmospheric mass density...
Loading historical data...
Loading historical data...
Loading historical data...
Loading historical data...
Loading historical data...
Loading historical data...
Loading historical data...

Documentation

Showing up to 5 results
|